Theta_e
327 327 326 325 325 324 325 324 323 322 321 321 321 321 322 323 323 322 321 320 319 318 318 318 318 318 321 316 316 325 327 330 326 324 320 316 313 312 307 307 308 306 307 308 309 307 307
326 325 325 324 324 324 324 324 323 321 320 320 320 320 320 321 322 322 321 318 316 316 316 317 318 317 319 310 324 326 325 324 323 322 320 319 314 313 309 307 305 308 308 308 308 307 308
326 325 324 323 323 323 323 322 322 321 321 321 320 320 320 321 321 321 318 316 315 315 316 317 318 319 317 315 326 328 325 324 324 323 319 321 316 312 312 308 310 307 303 306 307 307 306
326 325 325 323 322 321 321 321 321 322 321 321 321 320 319 320 320 318 315 314 314 315 316 317 317 320 313 325 328 324 325 323 324 325 323 321 317 313 311 313 309 305 304 299 305 307 307
325 325 325 324 322 321 321 321 321 321 321 321 320 320 319 319 316 314 313 313 313 315 317 318 320 320 312 322 320 324 324 318 320 322 323 318 316 311 311 305 303 305 299 301 304 307 306
322 323 323 322 322 321 321 320 319 318 319 319 318 316 314 314 313 313 311 312 317 315 319 323 321 314 318 314 319 321 324 321 316 317 316 314 311 308 307 305 297 300 301 303 302 307 305
319 319 318 317 318 319 318 317 316 315 315 316 315 314 313 312 312 311 313 322 315 314 318 313 314 313 316 320 321 318 320 317 317 313 307 312 306 302 305 307 306 304 302 301 305 308 303
313 313 316 317 317 317 317 317 315 315 315 315 314 313 312 311 311 311 314 313 313 313 307 315 314 314 317 318 311 315 320 311 310 306 309 307 303 308 308 308 305 304 301 301 305 307 305
311 311 311 312 314 317 317 317 315 314 314 315 313 313 311 311 310 313 313 312 316 316 305 309 313 312 313 315 310 311 316 312 308 305 306 303 306 309 306 304 302 302 301 301 301 305 307
311 311 311 310 311 311 313 316 316 314 314 314 313 312 311 310 309 313 310 315 315 315 298 303 306 309 311 311 305 315 315 311 307 303 305 304 308 305 304 302 303 299 304 303 302 300 295
311 310 311 311 311 310 310 310 315 315 314 314 312 312 311 308 310 308 311 312 315 310 286 305 304 315 312 307 308 308 315 309 302 304 304 301 303 302 302 303 305 301 305 302 302 299 299
308 307 308 309 310 311 311 310 311 313 314 313 312 312 310 309 310 312 313 313 310 292 285 299 304 303 303 306 306 309 308 311 310 304 305 303 308 305 304 305 305 305 303 301 301 299 291
308 307 307 307 308 308 310 312 311 311 313 313 312 312 309 312 305 315 313 307 289 286 300 297 298 301 302 301 302 304 303 302 300 296 298 302 303 306 306 301 303 302 298 288 286 288 288
308 308 308 308 308 308 309 310 310 310 311 312 311 310 311 311 314 313 309 293 283 295 296 300 298 298 296 300 299 301 301 299 305 302 298 295 294 303 307 302 300 299 298 290 284 287 290
308 308 308 308 308 308 308 308 309 309 310 310 310 309 308 312 315 312 299 284 290 295 299 296 297 294 296 297 296 297 297 298 299 300 295 295 295 303 304 306 304 299 295 300 292 294 289
307 306 307 307 307 307 307 307 307 308 309 309 305 302 302 313 312 305 293 287 293 298 297 296 291 293 292 294 293 294 294 297 295 297 300 294 290 299 300 302 303 300 302 292 291 285 284
306 305 305 306 306 306 306 307 306 306 307 307 302 295 304 310 306 295 285 290 293 297 296 293 292 291 293 292 294 293 293 295 298 297 298 295 292 293 297 295 294 295 294 294 294 290 284
304 302 304 305 305 305 305 305 305 305 305 304 300 288 306 308 289 286 286 293 295 294 297 294 294 291 290 290 290 290 291 294 297 296 293 296 291 288 292 299 300 298 295 294 289 287 290
303 303 304 304 304 304 304 304 304 304 304 305 293 293 304 303 284 285 290 291 294 293 292 292 291 294 294 289 286 291 292 297 296 294 292 294 289 285 289 294 297 293 295 295 294 293 287
303 303 302 302 303 303 303 303 303 303 303 302 293 286 295 294 294 291 288 288 287 293 292 293 292 293 291 289 291 288 289 293 295 294 295 293 289 286 282 287 289 286 290 291 290 287 288
303 302 300 301 302 302 302 302 302 302 302 301 292 288 293 285 287 288 291 289 287 286 292 294 290 291 289 285 287 287 291 291 293 295 295 292 284 287 289 290 289 288 288 288 287 289 285
302 302 302 301 302 302 301 302 301 301 301 296 288 289 294 292 292 289 288 287 288 290 290 289 289 291 292 288 289 287 289 290 289 292 291 292 284 286 284 287 287 285 288 289 290 290 290
302 302 301 301 301 301 301 302 301 302 300 293 297 296 290 289 289 287 288 288 288 290 291 293 292 291 290 291 294 295 296 295 294 291 290 290 288 285 281 287 286 282 287 289 290 291 291
302 302 302 302 301 300 301 301 301 301 300 297 298 296 289 284 288 287 288 289 288 289 287 289 290 288 293 299 298 296 296 294 294 293 294 289 287 286 282 284 274 286 293 292 290 291 293
301 301 301 302 301 300 300 301 301 301 302 298 298 296 290 285 286 287 286 285 288 288 288 288 290 293 296 293 287 284 286 288 290 292 292 293 289 284 279 280 284 287 290 290 288 288 294
300 301 301 301 301 300 300 300 301 301 301 299 298 299 293 287 285 288 285 287 284 285 286 289 294 297 296 290 285 279 278 282 282 286 292 292 292 285 283 277 275 286 292 295 295 284 295
300 300 300 300 300 300 300 300 300 301 300 299 298 301 294 288 290 288 285 284 287 286 285 288 289 290 292 286 282 281 281 286 281 282 284 286 286 283 282 280 283 292 294 295 282 285 295
299 300 300 300 300 300 300 300 300 300 300 299 297 301 295 290 291 291 291 287 287 288 284 288 287 288 285 281 280 282 283 284 284 286 285 284 282 283 283 279 277 295 294 287 293 297 296
299 299 299 299 300 300 300 299 299 299 299 300 294 301 300 292 291 296 295 295 293 292 289 289 287 286 288 283 283 282 278 283 283 279 288 283 288 285 285 285 292 294 294 297 297 296 296
Wind_Speed
16 17 16 16 15 14 15 14 14 13 13 12 11 11 11 10 10 11 11 10 12 15 15 15 15 13 14 13 20 11 5 10 12 12 13 13 12 11 13 11 14 12 19 9 11 8 11
17 17 17 16 16 16 16 15 14 13 13 12 12 11 12 11 11 11 11 10 11 14 16 15 13 14 13 24 11 7 8 12 17 16 14 14 12 6 10 12 14 16 14 14 14 14 13
19 19 19 17 17 16 16 15 16 15 14 13 12 12 11 12 12 10 9 11 11 14 15 16 11 8 16 23 19 15 14 15 10 11 13 10 9 11 4 11 6 11 16 17 19 18 15
20 20 20 18 17 16 16 16 17 16 15 15 15 13 12 12 11 10 8 10 12 13 16 13 6 9 15 15 14 13 13 10 7 7 11 3 8 11 12 10 10 15 16 17 19 22 20
21 21 20 20 19 19 17 18 18 18 17 15 14 13 11 10 7 8 10 11 13 14 10 6 8 8 20 2 10 12 8 4 8 5 7 3 9 12 9 12 14 17 16 20 21 8 12
2 8 12 13 13 15 14 12 11 6 8 7 6 7 5 2 4 11 11 11 6 5 9 8 8 9 17 16 1 5 8 8 10 10 10 12 11 12 12 14 14 16 21 19 20 12 16
8 6 7 8 8 8 8 8 5 9 10 11 11 9 5 1 4 10 12 10 10 10 16 14 7 14 21 9 11 16 14 10 16 18 21 18 16 19 19 18 17 19 23 20 18 5 8
7 10 9 4 3 4 5 6 8 3 5 5 7 8 5 2 5 10 7 7 6 5 14 19 24 28 29 24 27 30 21 16 17 22 23 21 24 22 19 18 16 16 20 21 21 21 13
3 4 4 3 6 4 6 7 7 8 4 6 5 6 2 3 8 4 2 3 7 7 11 17 25 24 21 20 30 31 22 21 24 25 21 27 21 17 22 22 21 18 22 21 23 19 14
5 2 3 2 4 6 8 8 9 9 8 7 7 5 5 3 2 2 3 4 3 3 8 13 8 5 7 7 9 15 14 18 22 22 24 22 25 28 21 21 17 21 19 21 21 18 19
7 4 4 4 5 6 8 8 11 11 10 9 10 7 5 4 1 3 5 4 3 3 8 8 9 7 7 11 4 9 7 12 19 18 13 21 16 15 24 30 23 23 16 15 16 17 20
5 4 3 5 6 7 8 11 11 13 14 12 13 11 8 5 4 2 2 2 2 3 13 7 9 10 12 14 8 8 8 9 8 15 18 20 19 8 16 15 16 16 11 13 14 14 18
12 11 11 11 10 9 9 11 7 5 12 12 13 12 8 3 3 7 2 2 4 9 4 10 7 8 12 8 11 11 11 11 10 9 16 20 22 20 13 11 8 10 12 6 9 12 19
13 12 12 12 12 12 11 11 9 6 5 9 11 12 10 8 5 6 5 2 8 11 22 5 2 7 10 8 10 10 11 13 17 15 12 14 13 18 21 19 14 18 18 10 11 15 14
13 11 10 10 9 9 9 8 7 10 8 4 2 3 3 8 7 7 6 6 10 13 11 3 7 9 12 7 6 6 9 8 7 7 8 9 17 5 3 12 16 14 19 18 20 21 14
14 12 11 11 10 10 8 8 9 9 12 10 2 2 3 8 5 4 7 10 16 8 4 5 11 5 15 13 8 8 12 4 4 4 6 3 7 13 13 11 14 15 13 8 0 6 20
14 12 11 11 12 11 10 10 9 7 6 8 4 4 5 9 4 5 10 13 16 5 5 4 4 4 11 5 13 9 2 5 9 4 6 4 7 11 6 9 13 12 13 14 11 8 5
15 12 15 13 14 14 12 12 10 7 3 4 3 4 6 10 5 3 5 15 7 12 10 9 4 1 2 3 5 2 2 3 10 15 10 5 6 10 19 16 15 11 17 18 12 14 14
17 18 17 14 14 13 13 13 13 10 9 4 4 3 3 7 8 4 5 11 20 14 12 8 10 13 11 5 5 12 11 6 4 3 5 2 3 8 14 20 21 13 15 19 17 12 15
18 17 16 14 14 14 13 13 13 11 9 3 3 4 6 3 4 14 13 12 8 10 11 17 17 16 16 16 14 6 8 5 8 5 2 4 6 14 15 19 8 9 14 18 10 5 12
18 17 15 18 16 14 14 13 14 12 10 6 4 4 6 6 13 11 19 10 15 16 13 14 17 19 17 15 18 18 21 18 18 16 17 9 8 14 16 21 21 23 22 21 24 21 20
18 18 19 17 17 16 15 15 14 14 12 7 4 5 5 13 16 17 9 10 25 22 21 15 19 19 22 23 22 21 20 18 17 13 21 19 15 19 22 27 25 24 23 27 28 25 27
20 20 19 19 18 18 17 15 16 15 15 7 8 4 2 11 17 12 8 11 7 6 9 11 15 13 19 18 9 11 15 12 12 12 13 15 11 12 17 20 21 19 18 23 26 26 26
21 21 20 20 21 20 19 17 16 16 18 9 5 5 7 6 7 10 15 17 11 12 4 5 2 3 5 13 7 10 13 15 18 20 18 19 17 12 16 18 22 19 21 26 29 27 26
22 21 22 21 21 21 19 19 17 17 17 11 8 4 4 10 10 12 2 5 9 3 1 6 10 8 4 4 4 4 8 14 22 22 22 20 18 13 14 17 21 25 26 23 23 22 24
24 22 21 20 21 21 20 20 19 17 17 10 8 6 6 4 8 11 5 6 5 6 5 12 7 5 5 7 4 6 9 5 7 9 21 23 22 14 14 18 20 23 13 20 25 14 9
25 24 22 21 23 22 20 19 18 18 18 11 6 9 6 5 10 3 4 5 5 5 7 6 2 1 9 3 8 11 15 14 14 18 12 11 11 15 16 15 7 14 16 9 12 8 10
24 24 24 22 22 23 22 22 24 20 19 14 9 8 9 5 9 5 8 8 5 5 7 4 4 5 2 3 5 3 5 6 10 16 18 17 13 11 9 9 12 8 7 8 9 10 9
25 25 24 24 22 23 24 22 22 21 20 18 6 7 8 7 4 6 6 10 10 10 7 5 7 2 2 2 3 3 8 6 7 6 11 15 11 8 5 3 6 5 8 7 9 12 8
Wind_Direction
231 235 234 232 231 233 237 241 241 244 249 250 254 261 264 272 277 285 295 301 303 303 310 312 322 328 317 300 276 107 170 219 263 275 287 282 278 279 264 271 278 253 272 248 260 231 244
228 232 235 234 232 233 236 238 239 244 247 249 250 252 262 260 269 280 284 285 291 298 305 307 315 317 277 280 286 288 292 290 277 271 273 255 268 324 286 275 274 278 307 281 251 231 227
228 229 232 233 234 234 236 236 237 234 240 246 248 250 253 259 263 257 273 286 291 292 296 300 301 289 271 261 284 288 287 282 281 269 262 246 275 260 310 259 296 277 266 262 254 247 234
230 230 231 229 229 231 231 233 239 238 237 237 237 238 244 252 258 264 269 280 280 287 293 288 273 262 269 283 295 284 257 246 237 252 244 232 249 270 270 274 264 255 249 255 251 224 233
234 233 231 231 227 224 229 233 236 236 236 235 240 238 239 243 245 263 278 276 279 279 256 249 247 231 269 127 234 231 220 236 298 225 216 243 241 243 238 245 251 233 256 252 245 197 220
61 232 232 233 235 235 229 221 210 181 209 210 176 128 119 184 287 291 285 266 274 241 220 219 258 275 233 260 185 245 216 247 281 266 229 220 232 233 209 236 243 252 230 228 257 199 211
54 103 93 95 95 111 115 107 97 115 117 124 126 128 138 290 319 301 292 260 230 202 226 244 254 235 292 253 210 246 231 253 274 243 252 227 236 237 233 236 248 272 282 283 286 298 241
19 62 39 121 123 121 142 139 124 100 110 118 134 138 142 192 290 297 278 263 40 5 285 258 259 260 258 268 273 262 269 257 251 243 243 243 243 244 265 260 257 266 265 261 267 269 225
354 11 20 15 17 233 210 190 159 158 181 147 173 142 204 291 313 289 318 50 14 344 267 258 241 251 255 249 255 256 247 240 243 258 238 246 250 240 233 250 246 236 253 261 267 276 272
220 228 249 255 310 315 339 219 196 177 191 177 200 190 228 351 290 171 193 156 121 217 278 266 200 246 210 226 260 228 238 238 243 249 245 258 256 253 239 236 245 253 241 253 259 258 261
215 219 247 254 266 260 276 293 226 190 194 199 191 205 243 248 352 238 72 46 113 263 267 98 128 110 156 212 24 173 177 209 235 234 230 238 249 240 246 246 242 250 266 283 270 263 273
216 196 273 312 311 279 265 266 264 217 201 208 198 198 199 210 237 193 117 68 133 197 233 193 144 189 192 212 231 130 182 228 241 252 252 253 273 268 265 259 251 259 249 257 259 254 254
222 233 234 239 239 267 289 289 240 294 215 205 199 190 205 219 225 149 141 69 206 222 135 182 193 195 213 192 211 206 190 197 219 219 222 232 236 239 231 238 207 223 205 229 224 221 245
235 235 242 245 234 233 236 255 262 252 275 239 207 184 211 222 191 161 151 101 228 241 238 89 235 213 234 197 222 209 231 237 220 258 274 273 257 212 207 230 228 211 211 225 245 254 265
245 237 230 230 232 226 227 228 245 243 237 222 161 210 215 218 204 199 189 205 215 236 268 208 212 241 215 201 282 217 234 278 20 349 258 292 255 174 276 224 227 241 216 237 269 273 270
240 231 238 233 229 230 227 227 229 235 232 208 211 198 259 190 156 192 221 234 229 241 303 243 236 205 239 232 251 230 255 287 202 359 299 44 280 281 276 229 246 250 281 253 283 245 239
240 245 245 243 234 227 225 222 224 216 237 256 228 207 217 144 124 210 222 225 225 249 121 257 274 209 257 260 241 223 224 188 199 166 329 70 217 245 258 237 257 244 240 250 265 246 269
212 232 260 244 235 226 221 213 213 213 199 185 219 228 179 152 221 220 219 237 230 249 218 237 250 218 296 26 323 332 248 145 356 325 288 285 313 268 260 270 286 273 265 244 247 252 244
234 229 235 230 220 214 216 205 200 198 199 221 230 181 182 190 223 196 219 252 241 255 228 235 230 212 220 255 254 255 239 255 185 278 291 336 231 285 254 232 226 246 278 259 269 264 232
236 235 224 221 220 210 209 201 195 203 202 226 266 181 196 254 219 228 241 248 251 272 270 271 265 255 248 233 229 256 267 169 220 259 120 51 274 254 264 289 303 287 295 298 294 267 278
234 229 210 235 217 216 217 209 205 206 206 206 219 225 202 197 240 245 256 237 235 230 223 267 230 250 249 259 261 257 263 264 256 247 191 203 225 233 253 271 278 282 278 280 273 265 263
225 221 217 217 219 214 218 212 205 208 195 222 207 207 216 251 252 208 208 226 255 256 221 215 229 220 224 232 236 255 249 252 246 236 231 222 248 254 264 266 264 267 261 253 260 260 264
227 223 222 214 213 224 214 212 210 199 198 218 212 169 291 248 243 246 220 233 231 283 297 257 261 281 253 251 292 311 300 281 272 270 269 251 243 247 255 263 275 268 254 257 263 266 270
230 225 222 216 209 211 219 211 213 206 206 240 214 239 233 250 254 253 264 263 258 249 263 353 59 280 351 353 288 261 253 257 253 250 247 249 247 253 267 282 270 264 262 264 264 264 265
227 227 222 218 208 205 220 215 204 207 207 244 253 210 244 264 251 233 260 348 307 319 211 231 255 259 233 197 287 289 249 244 239 237 238 235 243 256 253 257 266 272 264 264 268 269 282
222 221 221 215 203 207 215 219 205 203 205 225 254 257 254 261 258 279 156 193 291 335 322 257 39 337 278 257 215 235 236 245 246 211 220 229 229 232 247 254 259 259 277 7 320 261 332
216 216 216 213 204 199 212 218 211 206 202 213 226 225 251 252 271 264 227 249 230 222 256 260 348 30 40 283 231 241 247 249 259 262 222 211 223 234 243 248 262 265 290 314 280 333 4
217 215 212 210 206 201 198 208 210 209 201 204 218 206 231 224 260 197 258 241 232 222 242 202 256 185 108 319 327 326 302 337 280 276 267 256 231 234 244 242 264 16 309 301 351 317 338
212 211 214 207 203 198 194 193 215 207 209 195 225 201 229 257 284 0 299 283 284 290 293 265 256 324 159 208 184 295 311 277 265 284 322 261 236 266 285 280 182 274 302 349 320 301 295